Location: Stonelick Lake State Park
(39.2170°N, 84.0850°W)
Time: 00:54:16
(UTC-04:00)

Amateur Radio Satellites - All Passes

Search period start: 23 May 2017 00:24
Search period end: 24 May 2017 00:24
Location: Stonelick Lake State Park, 39.2170°N, 84.0850°W

Satellite Date Start Highest point End Downlink Frequencies (MHz)
Time Altitude Azimuth
AIST 2D 23 May 00:28:01 00:31:15 31° 97° (E) 00:34:27 435.315
ESTCUBE 1 23 May 00:28:02 00:32:33 73° 257° (WSW) 00:37:07 437.505/2401.250
SPROUT 23 May 00:34:48 00:38:32 31° 71° (ENE) 00:42:18 437.525
50 SAT 23 May 00:37:25 00:39:21 14° 68° (ENE) 00:41:17 437.505
FO-29 23 May 00:39:33 00:45:21 42° 290° (WNW) 00:51:50 435.910
NANOSAT C BR1 23 May 00:41:17 00:44:31 21° 95° (E) 00:47:44 145.865
POLYITAN 1 23 May 00:41:26 00:44:53 23° 95° (E) 00:48:20 437.675
SO-50 23 May 00:47:04 00:51:36 57° 304° (NW) 00:56:06 436.795
QB50P2 23 May 00:49:33 00:53:22 31° 97° (E) 00:57:11 145.880/145.840
DUCHIFAT 1 23 May 00:54:09 00:57:43 26° 96° (E) 01:01:17 145.980
DX 1 23 May 00:57:44 01:01:02 21° 67° (ENE) 01:04:20 434.975-435.025
UKube-1 23 May 00:59:52 01:02:24 16° 65° (ENE) 01:04:58 .
TIGRISAT 23 May 01:13:47 01:15:44 13° 296° (WNW) 01:17:41 435.000
ISS 23 May 01:25:29 01:26:42 12° 348° (NNW) 01:27:55 437.550
EO-79 23 May 01:27:58 01:32:14 83° 102° (ESE) 01:36:30 145.935-145.965
BUGSAT 1 23 May 01:30:14 01:33:16 20° 95° (E) 01:36:20 437.445
VELOX 1 23 May 01:43:14 01:47:25 41° 261° (W) 01:51:37 145.980
Oscar 19 23 May 01:47:04 01:48:51 12° 90° (E) 01:50:37 437.125/150
AIST 2D 23 May 02:02:11 02:04:10 14° 292° (WNW) 02:06:08 435.315
RS-15 23 May 02:06:19 02:15:18 25° 100° (E) 02:24:24 29.354- 29.394
YUBILEINY 23 May 02:07:52 02:16:11 53° 89° (E) 02:24:33 435.215
50 SAT 23 May 02:08:52 02:11:57 29° 262° (W) 02:15:03 437.505
SPROUT 23 May 02:11:21 02:14:29 20° 266° (W) 02:17:37 437.525
NANOSAT C BR1 23 May 02:16:31 02:20:13 30° 290° (WNW) 02:23:56 145.865
POLYITAN 1 23 May 02:16:59 02:20:37 28° 290° (WNW) 02:24:15 437.675
QB50P2 23 May 02:25:46 02:28:57 21° 292° (WNW) 02:32:09 145.880/145.840
Gurwin Techsat 1B 23 May 02:28:09 02:31:52 19° 93° (E) 02:35:33 435.225
DUCHIFAT 1 23 May 02:29:50 02:33:16 24° 291° (WNW) 02:36:42 145.980
DX 1 23 May 02:33:06 02:37:00 32° 262° (W) 02:40:55 434.975-435.025
UKube-1 23 May 02:33:54 02:38:02 46° 260° (W) 02:42:12 .
ISS 23 May 03:03:36 03:04:24 11° 9° (N) 03:05:12 437.550
BUGSAT 1 23 May 03:05:02 03:08:38 30° 289° (WNW) 03:12:17 437.445
ITUPSAT 1 23 May 03:05:38 03:09:47 31° 69° (ENE) 03:13:58 437.325
Tancredo 1 23 May 03:12:52 03:14:02 12° 15° (NNE) 03:15:12 437.200
Oscar 19 23 May 03:23:32 03:28:42 76° 285° (WNW) 03:33:49 437.125/150
BEESAT 23 May 03:41:23 03:46:07 74° 75° (ENE) 03:50:53 436.000
MOZHAYETS 4 23 May 04:00:56 04:05:26 61° 74° (ENE) 04:09:59
YUBILEINY 23 May 04:05:40 04:13:15 33° 289° (WNW) 04:20:58 435.215
Gurwin Techsat 1B 23 May 04:06:55 04:12:04 51° 289° (WNW) 04:17:11 435.225
RS-15 23 May 04:14:07 04:26:14 85° 301° (WNW) 04:38:43 29.354- 29.394
ITAMSAT 1 23 May 04:16:20 04:20:44 27° 96° (E) 04:25:08 435.822/435.867
AO-7 23 May 04:26:01 04:33:33 36° 98° (E) 04:41:03 .
CUBESAT XI-V 23 May 04:36:26 04:40:19 26° 68° (ENE) 04:44:12 437.345
ISS 23 May 04:38:52 04:41:46 28° 29° (NNE) 04:44:38 437.550
ITUPSAT 1 23 May 04:43:36 04:47:34 26° 264° (W) 04:51:35 437.325
Tancredo 1 23 May 04:47:27 04:50:26 44° 34° (NE) 04:53:23 437.200
PCSat 23 May 05:05:04 05:09:11 21° 48° (NE) 05:13:16 145.827
BEESAT 23 May 05:23:32 05:24:23 10° 270° (W) 05:25:13 436.000
KKS-1 23 May 05:24:19 05:28:44 74° 75° (ENE) 05:33:10 437.445
O/OREOS (USA 219) 23 May 05:39:24 05:43:59 80° 110° (ESE) 05:48:36 437.305
MOZHAYETS 4 23 May 05:41:10 05:42:58 12° 270° (W) 05:44:48
ITAMSAT 1 23 May 05:55:32 06:00:12 35° 292° (WNW) 06:04:52 435.822/435.867
STARS 23 May 06:06:55 06:11:17 88° 258° (WSW) 06:15:40 437.465
CUBESAT XI-V 23 May 06:13:24 06:17:32 31° 264° (W) 06:21:43 437.345
ISS 23 May 06:15:17 06:18:16 33° 225° (SW) 06:21:14 437.550
AO-7 23 May 06:18:29 06:26:26 50° 296° (WNW) 06:34:21 .
Tancredo 1 23 May 06:24:00 06:25:56 16° 229° (SW) 06:27:53 437.200
AO-85 23 May 06:25:17 06:29:30 75° 120° (ESE) 06:33:32 145.980
DOVE 4 23 May 06:29:02 06:31:48 17° 94° (E) 06:34:35 437.250
RS-15 23 May 06:30:21 06:40:48 31° 327° (NNW) 06:51:23 29.354- 29.394
LilacSat-2 23 May 06:43:20 06:45:18 13° 92° (E) 06:47:16 437.200
BEESAT 3 23 May 06:43:43 06:47:15 32° 114° (ESE) 06:50:49 437.485
PCSat 23 May 06:47:38 06:52:58 59° 246° (WSW) 06:58:16 145.827
CUTE-I 23 May 07:21:15 07:26:06 34° 97° (E) 07:30:55 437.470
XW-2D 23 May 07:21:15 07:24:53 38° 98° (E) 07:28:29 145.860 - 145.880
O/OREOS (USA 219) 23 May 07:22:27 07:24:00 11° 308° (NW) 07:25:33 437.305
XW-2B 23 May 07:29:00 07:32:44 46° 99° (E) 07:36:26 145.730 - 145.750
STRAND 1 23 May 07:35:08 07:39:46 37° 70° (ENE) 07:44:27 437.568
SO-50 23 May 07:40:31 07:42:37 13° 40° (NE) 07:44:43 436.795
XW-2C 23 May 07:42:21 07:46:14 73° 102° (ESE) 07:50:03 145.795 - 145.815
XW-2F 23 May 07:44:28 07:48:20 74° 102° (ESE) 07:52:08 145.980 - 146.000
BEESAT 2 23 May 07:51:17 07:55:11 67° 119° (ESE) 07:59:12 435.950
JUGNU 23 May 07:54:28 07:55:58 11° 182° (S) 07:57:29 437.505
NUDT-PHONESAT 23 May 07:56:05 07:59:53 83° 103° (ESE) 08:03:38 437.300
KAITUO 1B 23 May 07:58:57 08:02:46 89° 290° (WNW) 08:06:34 145.475/437.950
M-CUBED/EXP-1 PRIME 23 May 08:05:21 08:08:46 23° 65° (ENE) 08:12:02 437.505
DOVE 4 23 May 08:05:51 08:09:36 34° 288° (WNW) 08:13:24 437.250
AO-85 23 May 08:08:42 08:10:19 12° 317° (NW) 08:11:56 145.980
AO-7 23 May 08:15:54 08:17:12 10° 317° (NW) 08:18:30 .
LilacSat-2 23 May 08:16:06 08:19:44 39° 287° (WNW) 08:23:21 437.200
HO-68 23 May 08:17:20 08:23:40 32° 96° (E) 08:29:57 435.675
BEESAT 3 23 May 08:21:42 08:24:51 22° 311° (NW) 08:28:03 437.485
CUBEBUG 2 23 May 08:23:32 08:26:01 14° 92° (E) 08:28:29 437.445
CUTE 1.7 + AOD 2 23 May 08:26:08 08:29:53 29° 96° (E) 08:33:36 437.475
UWE-3 23 May 08:42:29 08:44:49 14° 91° (E) 08:47:09 435.000/436.395/437.385
RS-15 23 May 08:50:46 08:59:05 20° 3° (N) 09:07:19 29.354- 29.394
XW-2D 23 May 08:56:37 08:58:43 14° 293° (WNW) 09:00:48 145.860 - 145.880
AAUSAT CUBESAT 2 23 May 08:59:47 09:02:54 20° 94° (E) 09:05:58 437.432
CUTE-I 23 May 09:01:28 09:06:00 29° 293° (WNW) 09:10:31 437.470
XW-2B 23 May 09:04:57 09:06:29 12° 294° (WNW) 09:08:00 145.730 - 145.750
STRAND 1 23 May 09:14:57 09:19:01 24° 265° (W) 09:23:07 437.568
SO-50 23 May 09:19:11 09:23:43 89° 251° (WSW) 09:28:15 436.795
SEEDS 23 May 09:22:43 09:26:58 86° 103° (ESE) 09:31:09 437.485
XW-2A 23 May 09:28:47 09:32:04 43° 286° (WNW) 09:35:21 145.665 - 145.685
UNISAT 6 23 May 09:30:31 09:31:14 10° 62° (ENE) 09:31:56 437.425
Oscar 11 23 May 09:30:53 09:33:52 18° 93° (E) 09:36:48 .
BEESAT 2 23 May 09:31:24 09:33:24 13° 317° (NW) 09:35:25 435.950
M-CUBED/EXP-1 PRIME 23 May 09:39:10 09:43:02 30° 257° (WSW) 09:46:44 437.505
AO-73 23 May 09:51:39 09:55:56 40° 98° (E) 10:00:13 145.935
CUBEBUG 2 23 May 09:58:26 10:02:51 53° 286° (WNW) 10:07:23 437.445
CUTE 1.7 + AOD 2 23 May 10:02:14 10:05:33 22° 292° (WNW) 10:08:50 437.475
ZACube-1 23 May 10:03:06 10:07:36 60° 100° (E) 10:12:07 437.345
HO-68 23 May 10:04:42 10:11:30 47° 293° (WNW) 10:18:17 435.675
SRMSAT 23 May 10:14:51 10:16:20 11° 180° (S) 10:17:49 437.500
UWE-3 23 May 10:17:04 10:21:31 55° 286° (WNW) 10:26:02 435.000/436.395/437.385
TIGRISAT 23 May 10:32:42 10:36:46 47° 73° (ENE) 10:40:54 435.000
AAUSAT CUBESAT 2 23 May 10:34:45 10:38:21 29° 289° (WNW) 10:41:56 437.432
NO-84 23 May 10:35:05 10:39:26 66° 133° (SE) 10:43:39 435.350 FM
PRISM 23 May 10:45:58 10:50:06 76° 258° (WSW) 10:54:15 437.425
FO-29 23 May 10:51:18 10:56:31 79° 75° (ENE) 11:01:45 435.910
EO-88 23 May 10:55:05 10:58:16 28° 96° (E) 11:01:28 145.990 - 145.960
UNISAT 6 23 May 11:03:05 11:07:19 69° 259° (W) 11:11:37 437.425
AIST 2D 23 May 11:03:40 11:04:26 11° 66° (ENE) 11:05:12 435.315
RS-15 23 May 11:05:54 11:16:55 36° 37° (NE) 11:27:27 29.354- 29.394
Oscar 11 23 May 11:06:04 11:10:07 37° 288° (WNW) 11:14:07 .
DELFI C3 23 May 11:28:14 11:32:10 73° 284° (WNW) 11:36:03 145.870
AO-73 23 May 11:28:39 11:31:51 19° 293° (WNW) 11:35:04 145.935
NANOSAT C BR1 23 May 11:33:19 11:35:32 14° 65° (ENE) 11:37:44 145.865
POLYITAN 1 23 May 11:33:46 11:36:19 16° 66° (ENE) 11:38:52 437.675
ZACube-1 23 May 11:41:08 11:43:21 14° 296° (WNW) 11:45:36 437.345
QB50P2 23 May 11:41:30 11:44:40 21° 68° (ENE) 11:47:49 145.880/145.840
DUCHIFAT 1 23 May 11:45:33 11:48:17 17° 66° (ENE) 11:51:02 145.980
LO-87 23 May 11:51:39 11:54:00 17° 94° (E) 11:56:22 145.935 - 145.965
TIGRISAT 23 May 12:11:39 12:13:44 13° 269° (W) 12:15:50 435.000
NO-84 23 May 12:13:54 12:17:21 23° 329° (NNW) 12:20:40 435.350 FM
EO-79 23 May 12:19:00 12:23:03 51° 73° (ENE) 12:27:07 145.935-145.965
YUBILEINY 23 May 12:19:52 12:26:44 24° 67° (ENE) 12:33:34 435.215
BUGSAT 1 23 May 12:20:23 12:22:01 12° 64° (ENE) 12:23:38 437.445
ESTCUBE 1 23 May 12:22:03 12:25:46 25° 95° (E) 12:29:27 437.505/2401.250
EO-88 23 May 12:29:16 12:31:44 17° 292° (WNW) 12:34:12 145.990 - 145.960
AIST 2D 23 May 12:33:52 12:37:13 43° 262° (W) 12:40:36 435.315
Oscar 19 23 May 13:02:10 13:05:30 17° 63° (ENE) 13:08:51 437.125/150
NANOSAT C BR1 23 May 13:06:48 13:10:49 47° 260° (W) 13:14:52 145.865
POLYITAN 1 23 May 13:07:48 13:11:45 41° 262° (W) 13:15:44 437.675
QB50P2 23 May 13:16:34 13:20:15 30° 263° (W) 13:23:59 145.880/145.840
RS-15 23 May 13:18:34 13:30:45 80° 243° (WSW) 13:42:16 29.354- 29.394
DUCHIFAT 1 23 May 13:19:49 13:23:39 37° 262° (W) 13:27:32 145.980
LO-87 23 May 13:24:28 13:27:27 25° 289° (WNW) 13:30:24 145.935 - 145.965
50 SAT 23 May 13:33:29 13:35:35 16° 94° (E) 13:37:42 437.505
VELOX 1 23 May 13:34:04 13:38:08 37° 98° (E) 13:42:13 145.980
Gurwin Techsat 1B 23 May 13:47:58 13:52:26 28° 67° (ENE) 13:56:53 435.225
BUGSAT 1 23 May 13:53:02 13:56:55 50° 260° (W) 14:00:50 437.445
SPROUT 23 May 13:56:31 14:00:48 72° 101° (E) 14:05:03 437.525
EO-79 23 May 13:57:25 13:59:06 12° 269° (W) 14:00:46 145.935-145.965
ESTCUBE 1 23 May 13:58:38 14:02:32 29° 291° (WNW) 14:06:23 437.505/2401.250
O/OREOS (USA 219) 23 May 14:13:02 14:15:14 13° 54° (NE) 14:17:26 437.305
YUBILEINY 23 May 14:15:32 14:24:19 71° 267° (W) 14:33:04 435.215
DX 1 23 May 14:21:44 14:25:52 43° 99° (E) 14:30:00 434.975-435.025
UKube-1 23 May 14:21:58 14:25:45 29° 97° (E) 14:29:30 .
Oscar 19 23 May 14:39:13 14:44:19 58° 259° (W) 14:49:28 437.125/150
AO-85 23 May 14:57:05 15:00:57 43° 55° (NE) 15:05:00 145.980
BEESAT 3 23 May 15:01:51 15:04:27 16° 46° (NE) 15:07:01 437.485
50 SAT 23 May 15:05:38 15:08:28 25° 289° (WNW) 15:11:16 437.505
VELOX 1 23 May 15:11:14 15:14:18 19° 294° (WNW) 15:17:22 145.980
AO-7 23 May 15:23:45 15:31:29 46° 63° (ENE) 15:39:15 .
Gurwin Techsat 1B 23 May 15:27:24 15:32:12 35° 263° (W) 15:37:03 435.225
ITAMSAT 1 23 May 15:33:09 15:37:53 38° 69° (ENE) 15:42:38 435.822/435.867
RS-15 23 May 15:34:10 15:41:03 18° 263° (W) 15:47:48 29.354- 29.394
SPROUT 23 May 15:35:44 15:36:05 10° 297° (WNW) 15:36:27 437.525
BEESAT 23 May 15:43:20 15:46:52 20° 94° (E) 15:50:22 436.000
O/OREOS (USA 219) 23 May 15:50:38 15:55:07 64° 252° (WSW) 15:59:32 437.305
MOZHAYETS 4 23 May 15:58:13 16:01:01 16° 92° (E) 16:03:48
UKube-1 23 May 15:58:14 16:01:36 23° 293° (WNW) 16:04:58 .
DX 1 23 May 15:59:01 16:01:41 16° 295° (WNW) 16:04:22 434.975-435.025
BEESAT 2 23 May 16:10:06 16:13:41 29° 51° (NE) 16:17:12 435.950
YUBILEINY 23 May 16:16:45 16:19:22 12° 286° (WNW) 16:21:59 435.215
BEESAT 3 23 May 16:38:26 16:42:19 50° 243° (WSW) 16:46:08 437.485
AO-85 23 May 16:38:27 16:41:03 16° 249° (WSW) 16:43:43 145.980
ITUPSAT 1 23 May 16:43:58 16:48:49 85° 104° (ESE) 16:53:38 437.325
NO-84 23 May 17:11:02 17:14:13 27° 33° (NNE) 17:17:10 435.350 FM
ITAMSAT 1 23 May 17:13:16 17:17:25 24° 265° (W) 17:21:36 435.822/435.867
AO-7 23 May 17:16:41 17:24:16 39° 261° (W) 17:31:55 .
KKS-1 23 May 17:17:37 17:20:10 15° 93° (E) 17:22:42 437.445
BEESAT 23 May 17:20:17 17:24:45 40° 289° (WNW) 17:29:13 436.000
DOVE 4 23 May 17:33:30 17:36:41 18° 67° (ENE) 17:39:45 437.250
MOZHAYETS 4 23 May 17:33:56 17:38:25 48° 287° (WNW) 17:42:52
BEESAT 2 23 May 17:48:00 17:51:18 24° 248° (WSW) 17:54:35 435.950
STARS 23 May 17:58:13 18:01:10 18° 94° (E) 18:04:07 437.465
XW-2D 23 May 18:02:18 18:04:46 17° 68° (ENE) 18:07:15 145.860 - 145.880
XW-2B 23 May 18:09:46 18:12:33 20° 69° (ENE) 18:15:22 145.730 - 145.750
CUBESAT XI-V 23 May 18:10:13 18:14:54 71° 102° (ESE) 18:19:30 437.345
XW-2C 23 May 18:22:41 18:25:57 28° 71° (ENE) 18:29:16 145.795 - 145.815
XW-2F 23 May 18:24:23 18:27:39 28° 71° (ENE) 18:30:57 145.980 - 146.000
ITUPSAT 1 23 May 18:24:48 18:25:55 11° 300° (WNW) 18:27:02 437.325
NUDT-PHONESAT 23 May 18:34:23 18:37:37 29° 71° (ENE) 18:40:53 437.300
KAITUO 1B 23 May 18:37:48 18:41:12 33° 72° (ENE) 18:44:38 145.475/437.950
CUTE-I 23 May 18:41:54 18:47:01 51° 71° (ENE) 18:52:09 437.470
HO-68 23 May 18:45:58 18:51:16 23° 58° (ENE) 18:56:34 435.675
NO-84 23 May 18:48:40 18:51:46 30° 232° (SW) 18:54:37 435.350 FM
KKS-1 23 May 18:52:41 18:56:56 46° 288° (WNW) 19:01:10 437.445
LilacSat-2 23 May 18:56:11 19:00:00 83° 77° (ENE) 19:03:52 437.200
DOVE 4 23 May 19:09:35 19:14:06 42° 261° (W) 19:18:22 437.250
CUTE 1.7 + AOD 2 23 May 19:18:10 19:21:12 19° 67° (ENE) 19:24:15 437.475
STARS 23 May 19:33:34 19:37:38 38° 289° (WNW) 19:41:41 437.465
XW-2D 23 May 19:35:19 19:38:41 31° 263° (W) 19:42:07 145.860 - 145.880
XW-2B 23 May 19:43:23 19:46:34 26° 264° (W) 19:49:49 145.730 - 145.750
PCSat 23 May 19:46:20 19:50:16 21° 106° (ESE) 19:54:12 145.827
STRAND 1 23 May 19:48:08 19:50:40 14° 91° (E) 19:53:10 437.568
CUBESAT XI-V 23 May 19:49:56 19:51:37 12° 298° (WNW) 19:53:18 437.345
AAUSAT CUBESAT 2 23 May 19:50:03 19:51:54 13° 65° (ENE) 19:53:47 437.432
XW-2C 23 May 19:57:33 20:00:10 18° 267° (W) 20:02:48 145.795 - 145.815
XW-2A 23 May 19:58:42 20:01:53 43° 74° (ENE) 20:05:06 145.665 - 145.685
XW-2F 23 May 19:59:12 20:01:48 18° 266° (W) 20:04:26 145.980 - 146.000
NUDT-PHONESAT 23 May 20:09:13 20:11:34 16° 267° (W) 20:13:57 437.300
SEEDS 23 May 20:12:50 20:16:56 49° 74° (ENE) 20:21:03 437.485
KAITUO 1B 23 May 20:13:09 20:15:18 15° 267° (W) 20:17:28 145.475/437.950
CUTE-I 23 May 20:23:39 20:27:19 19° 267° (W) 20:31:00 437.470
Oscar 11 23 May 20:25:46 20:27:42 13° 64° (ENE) 20:29:38 .
HO-68 23 May 20:31:09 20:38:18 71° 257° (WSW) 20:45:30 435.675
AO-73 23 May 20:46:26 20:49:53 25° 69° (ENE) 20:53:24 145.935
CUTE 1.7 + AOD 2 23 May 20:52:51 20:56:46 35° 263° (W) 21:00:43 437.475
CUBEBUG 2 23 May 20:55:19 20:59:25 72° 259° (WSW) 21:03:37 437.445
ZACube-1 23 May 20:57:53 21:01:44 37° 72° (ENE) 21:05:41 437.345
UWE-3 23 May 21:12:44 21:16:52 78° 258° (WSW) 21:21:07 435.000/436.395/437.385
ISS 23 May 21:19:40 21:21:13 13° 129° (SE) 21:22:46 437.550
Tancredo 1 23 May 21:19:49 21:22:05 19° 132° (SE) 21:24:22 437.200
M-CUBED/EXP-1 PRIME 23 May 21:19:54 21:21:31 13° 98° (E) 21:23:08 437.505
AAUSAT CUBESAT 2 23 May 21:22:47 21:26:53 53° 260° (W) 21:31:00 437.432
STRAND 1 23 May 21:25:09 21:30:15 66° 286° (WNW) 21:35:21 437.568
PCSat 23 May 21:27:58 21:33:14 51° 302° (WNW) 21:38:33 145.827
EO-88 23 May 21:33:47 21:34:55 11° 66° (ENE) 21:36:04 145.990 - 145.960
SEEDS 23 May 21:50:54 21:52:52 13° 269° (W) 21:54:51 437.485
Oscar 11 23 May 21:59:03 22:03:18 57° 260° (W) 22:07:36 .
FO-29 23 May 22:02:55 22:04:52 11° 90° (E) 22:06:52 435.910
DELFI C3 23 May 22:12:04 22:15:56 51° 74° (ENE) 22:19:49 145.870
AO-73 23 May 22:22:37 22:26:02 24° 265° (W) 22:29:33 145.935
TIGRISAT 23 May 22:27:00 22:28:35 12° 90° (E) 22:30:10 435.000
PRISM 23 May 22:29:37 22:31:59 15° 93° (E) 22:34:19 437.425
ZACube-1 23 May 22:35:31 22:38:10 16° 268° (W) 22:40:53 437.345
M-CUBED/EXP-1 PRIME 23 May 22:53:13 22:56:05 27° 294° (WNW) 22:58:53 437.505
ISS 23 May 22:54:04 22:57:20 63° 324° (NW) 23:00:37 437.550
Tancredo 1 23 May 22:54:47 22:57:41 37° 328° (NNW) 23:00:35 437.200
UNISAT 6 23 May 22:55:45 22:59:38 27° 96° (E) 23:03:33 437.425
EO-88 23 May 23:04:40 23:08:10 44° 261° (W) 23:11:42 145.990 - 145.960
ESTCUBE 1 23 May 23:20:45 23:24:09 21° 67° (ENE) 23:27:34 437.505/2401.250
SO-50 23 May 23:32:23 23:36:36 37° 115° (ESE) 23:40:48 436.795
FO-29 23 May 23:44:07 23:50:28 79° 103° (ESE) 23:57:40 435.910
DELFI C3 23 May 23:49:51 23:50:59 11° 269° (W) 23:52:07 145.870
LO-87 23 May 23:58:34 00:02:07 81° 258° (WSW) 00:05:41 145.935 - 145.965
AIST 2D 24 May 00:01:01 00:02:59 14° 93° (E) 00:04:56 435.315
TIGRISAT 24 May 00:01:05 00:05:37 65° 285° (WNW) 00:10:13 435.000
PRISM 24 May 00:03:37 00:07:24 38° 288° (WNW) 00:11:10 437.425
